Truth Or Consequences, NM

11:32 AM MST on November 21, 2017 (GMT -0700)
Truth Or Consequences Municipal

Weather History for KTCS - January, 2014

Change the Weather History Date:

Sunday, January 12, 2014

  Actual Average Record
Temperature  
Mean Temperature 50 °F -  
Max Temperature 69 °F 54 °F 70 °F (2000)
Min Temperature 30 °F 28 °F 17 °F (2013)
Degree Days  
Heating Degree Days 15    
Month to date heating degree days 268  
Since 1 July heating degree days 1687  
Moisture  
Dew Point 12 °F    
Average Humidity 33    
Maximum Humidity 58    
Minimum Humidity 7    
Precipitation  
Precipitation 0.00 in - 0.19 in (2015)
Month to date precipitation 0.00  
Year to date precipitation 0.00  
Sea Level Pressure  
Sea Level Pressure 29.91 in    
Wind  
Wind Speed 10 mph (WNW)    
Max Wind Speed 29 mph    
Max Gust Speed 38 mph    
Visibility 10 miles    
Events      
T = Trace of Precipitation, MM = Missing Value Source: NWS Daily Summary

Daily Weather History Graph

Daily Weather History Graph

Search for Another Location

Airport or City:

Trip Planner

Search our weather history database for the weather conditions in past years. The results will help you decide how hot, cold, wet, or windy it might be!

Date:

Astronomy

Jan. 12, 2014 Rise Set
Actual Time 7:13 AM MST 5:22 PM MST
Civil Twilight 6:46 AM MST 5:49 PM MST
Nautical Twilight 6:15 AM MST 6:19 PM MST
Astronomical Twilight 5:45 AM MST 6:49 PM MST
Moon 2:51 PM MST (1/12) 4:15 AM MST (1/12)
Length of Visible Light 11h 02m
Length of Day
10h 08m
Waxing Gibbous, 90% of the Moon is Illuminated
Jan 12
Waxing Gibbous
Jan 15
Full
Jan 23
Last Quarter
Jan 30
New
Feb 6
First Quarter

Hourly Weather History & Observations

Time (MST) Temp. Windchill Dew Point Humidity Pressure Visibility Wind Dir Wind Speed Gust Speed Precip Events Conditions
12:53 AM 39.0 °F 34.0 °F 19.0 °F 45% 29.94 in 10.0 mi West 6.9 mph - N/A   Clear
1:53 AM 36.0 °F 33.3 °F 19.0 °F 50% 29.92 in 10.0 mi West 3.5 mph - N/A   Clear
2:53 AM 36.0 °F - 18.0 °F 48% 29.91 in 10.0 mi Calm Calm - N/A   Clear
3:53 AM 36.0 °F 33.3 °F 18.0 °F 48% 29.88 in 10.0 mi SSE 3.5 mph - N/A   Clear
4:53 AM 30.9 °F - 17.1 °F 57% 29.88 in 10.0 mi Calm Calm - N/A   Clear
5:53 AM 32.0 °F 26.4 °F 18.0 °F 56% 29.89 in 10.0 mi WNW 5.8 mph - N/A   Clear
6:53 AM 34.0 °F 27.2 °F 19.0 °F 54% 29.90 in 10.0 mi NW 8.1 mph - N/A   Clear
7:53 AM 34.0 °F - 19.9 °F 56% 29.94 in 10.0 mi Calm Calm - N/A   Clear
8:53 AM 37.9 °F - 19.9 °F 48% 29.97 in 10.0 mi Calm Calm - N/A   Clear
9:53 AM 41.0 °F 39.0 °F 19.9 °F 43% 29.96 in 10.0 mi ESE 3.5 mph - N/A   Clear
10:53 AM 45.0 °F 43.5 °F 19.9 °F 37% 29.92 in 10.0 mi South 3.5 mph - N/A   Clear
11:53 AM 52.0 °F - 19.0 °F 27% 29.86 in 10.0 mi SSE 6.9 mph - N/A   Clear
12:53 PM 60.1 °F - 17.1 °F 19% 29.79 in 10.0 mi South 10.4 mph - N/A   Clear
1:53 PM 68.0 °F - 10.9 °F 11% 29.75 in 10.0 mi West 18.4 mph 23.0 mph N/A   Clear
2:53 PM 68.0 °F - 5.0 °F 8% 29.76 in 10.0 mi WNW 24.2 mph 38.0 mph N/A   Clear
3:53 PM 66.9 °F - 8.1 °F 10% 29.77 in 10.0 mi WNW 16.1 mph 25.3 mph N/A   Clear
4:53 PM 64.0 °F - -2.0 °F 7% 29.82 in 10.0 mi NW 17.3 mph 26.5 mph N/A   Clear
5:53 PM 60.1 °F - -2.0 °F 8% 29.88 in 10.0 mi NW 15.0 mph 25.3 mph N/A   Clear
6:53 PM 57.0 °F - 3.0 °F 11% 29.93 in 10.0 mi NW 15.0 mph 24.2 mph N/A   Clear
7:53 PM 53.1 °F - 9.0 °F 17% 29.99 in 10.0 mi NW 16.1 mph 25.3 mph N/A   Clear
8:53 PM 50.0 °F - 10.0 °F 20% 30.00 in 10.0 mi WNW 23.0 mph 29.9 mph N/A   Clear
9:53 PM 46.0 °F 38.5 °F 8.1 °F 21% 30.03 in 10.0 mi WNW 19.6 mph - N/A   Clear
10:53 PM 44.1 °F 37.7 °F 7.0 °F 22% 30.07 in 10.0 mi North 12.7 mph 17.3 mph N/A   Clear
11:53 PM 46.0 °F 40.2 °F 3.0 °F 17% 30.09 in 10.0 mi North 12.7 mph 27.6 mph N/A   Clear